Location: Bluff Heights
(33.7692°N, 118.1592°W)
Time: 22:13:36
(UTC+00:00)

Courier 1B - All Passes

Search period start: 28 July 2021 00:00
Search period end: 07 August 2021 00:00
Orbit: 962 x 1209 km, 28.3° (Epoch: 28 July)

Date Brightness Start Highest point End Pass type
(mag) Time Alt. Az. Time Alt. Az. Time Alt. Az.
28 Jul - 02:27:47 10° SSW 02:33:19 21° SSE 02:38:43 10° ESE daylight
28 Jul - 04:19:49 10° SW 04:27:00 43° SSE 04:33:53 10° E visible
28 Jul - 06:13:37 10° WSW 06:20:58 57° S 06:27:51 10° ESE visible
28 Jul - 08:08:00 10° W 08:14:49 45° SSW 08:21:14 10° ESE night (unlit)
28 Jul - 10:03:14 10° WSW 10:08:13 21° SSW 10:13:03 10° SSE night (unlit)
29 Jul - 01:35:06 10° S 01:39:34 16° SSE 01:43:59 10° ESE daylight
29 Jul - 03:26:09 10° SW 03:33:11 37° SSE 03:39:59 10° E visible
29 Jul - 05:19:39 10° WSW 05:27:07 56° S 05:34:09 10° E visible
29 Jul - 07:13:57 10° W 07:21:04 51° S 07:27:45 10° ESE visible
29 Jul - 09:08:48 10° W 09:14:38 28° SSW 09:20:11 10° SSE night (unlit)
30 Jul - 00:43:25 10° SSE 00:45:50 12° SSE 00:48:14 10° SE daylight
30 Jul - 02:32:39 10° SW 02:39:22 32° SSE 02:45:57 10° E daylight
30 Jul - 04:25:44 10° WSW 04:33:14 53° S 04:40:24 10° E visible
30 Jul - 06:19:54 10° W 06:27:15 55° S 06:34:11 10° ESE visible
30 Jul - 08:14:33 10° W 08:20:59 34° SSW 08:27:05 10° SE night (unlit)
30 Jul - 10:11:28 10° SW 10:14:14 13° SSW 10:16:56 10° S night (unlit)
31 Jul - 01:39:22 10° SSW 01:45:34 26° SSE 01:51:43 10° ESE daylight
31 Jul - 03:31:54 10° WSW 03:39:21 48° SSE 03:46:34 10° E visible
31 Jul - 05:25:52 10° WSW 05:33:25 58° S 05:40:32 10° ESE visible
31 Jul - 07:20:23 10° W 07:27:17 41° SSW 07:33:47 10° SE visible
31 Jul - 09:16:09 10° WSW 09:20:40 18° SSW 09:25:03 10° SSE night (unlit)
01 Aug - 00:46:23 10° SSW 00:51:48 20° SSE 00:57:13 10° ESE daylight
01 Aug - 02:38:10 10° SW 02:45:29 43° SSE 02:52:39 10° E daylight
01 Aug - 04:31:53 10° WSW 04:39:31 58° S 04:46:48 10° ESE visible
01 Aug - 06:26:16 10° W 06:33:31 48° SSW 06:40:21 10° ESE visible
01 Aug - 08:21:27 10° WSW 08:27:04 24° SSW 08:32:25 10° SSE night (unlit)
01 Aug - 23:53:56 10° S 23:58:04 15° SSE 00:02:14 10° ESE daylight
02 Aug - 01:44:35 10° SW 01:51:37 37° SSE 01:58:37 10° E daylight
02 Aug - 03:37:57 10° WSW 03:45:36 56° S 03:53:00 10° E visible
02 Aug - 05:32:11 10° W 05:39:40 53° S 05:46:47 10° ESE visible
02 Aug - 07:27:02 10° W 07:33:24 30° SSW 07:39:27 10° SE visible
02 Aug - 23:03:06 10° SSE 23:04:21 10° SSE 23:05:37 10° SE daylight
03 Aug - 00:51:12 10° SW 00:57:48 31° SSE 01:04:27 10° E daylight
03 Aug - 02:44:05 10° WSW 02:51:40 53° S 02:59:08 10° E daylight
03 Aug - 04:38:09 10° W 04:45:47 57° S 04:53:07 10° ESE visible
03 Aug - 06:32:45 10° W 06:39:40 37° SSW 06:46:14 10° SE visible
03 Aug - 08:29:14 10° WSW 08:33:02 15° SSW 08:36:43 10° S night (unlit)
03 Aug - 23:58:03 10° SSW 00:04:01 25° SSE 00:10:05 10° ESE daylight
04 Aug - 01:50:20 10° WSW 01:57:46 48° SSE 02:05:12 10° E daylight
04 Aug - 03:44:09 10° WSW 03:51:52 59° S 03:59:21 10° ESE visible
04 Aug - 05:38:36 10° W 05:45:53 44° SSW 05:52:49 10° SE visible
04 Aug - 07:34:10 10° WSW 07:39:25 20° SSW 07:44:27 10° SSE visible
04 Aug - 23:05:17 10° SSW 23:10:17 19° SSE 23:15:23 10° ESE daylight
05 Aug - 00:56:42 10° SW 01:03:53 42° SSE 01:11:10 10° E daylight
05 Aug - 02:50:14 10° WSW 02:57:55 59° S 03:05:31 10° E daylight
05 Aug - 04:44:30 10° W 04:52:01 50° SSW 04:59:16 10° ESE visible
05 Aug - 06:39:34 10° W 06:45:43 26° SSW 06:51:39 10° SSE visible
05 Aug - 22:13:10 10° S 22:16:36 14° SSE 22:20:05 10° ESE daylight
06 Aug - 00:03:15 10° SW 00:10:03 35° SSE 00:17:01 10° E daylight
06 Aug - 01:56:23 10° WSW 02:03:59 56° S 02:11:37 10° E daylight
06 Aug - 03:50:29 10° W 03:58:07 55° S 04:05:36 10° ESE visible
06 Aug - 05:45:12 10° W 05:51:59 33° SSW 05:58:31 10° SE visible
06 Aug - 07:42:52 10° SW 07:45:20 12° SSW 07:47:48 10° SSW night (unlit)
06 Aug - 23:10:01 10° SSW 23:16:16 29° SSE 23:22:43 10° E daylight
